EW9119 Weather Reports


time (UTC)temp
C
wind
direction
speed
KPH
gust
KPH
rain 1hr
cm
rain 24hr
cm
rain mn
cm
humidity
%
barometer
mb
20260509234558 21 63 0.0 0.0 0.00 0.00 0.00 59 1008.4
20260509233054 21 63 0.0 0.0 0.00 0.00 0.00 60 1007.9
20260509231550 21 63 0.0 0.0 0.00 0.00 0.00 61 1007.9
20260509230047 21 63 0.0 0.0 0.00 0.00 0.00 61 1007.6
20260509224556 21 90 0.0 0.0 0.00 0.00 0.00 61 1007.3
20260509223044 21 97 0.0 1.6 0.00 0.00 0.00 61 1007.5
20260509221547 21 65 0.0 4.8 0.00 0.00 0.00 62 1007.4
20260509220033 21 147 0.0 1.6 0.00 0.00 0.00 62 1007.5
20260509214529 22 43 0.0 0.0 0.00 0.00 0.00 62 1007.4
20260509213025 22 127 0.0 0.0 0.00 0.00 0.00 62 1007.5
20260509211520 22 26 0.0 3.2 0.00 0.00 0.00 62 1007.3
20260509210021 22 62 0.0 0.0 0.00 0.00 0.00 62 1007.0
20260509204512 22 121 0.0 0.0 0.00 0.00 0.00 62 1007.1
20260509203007 22 296 0.0 0.0 0.00 0.00 0.00 62 1007.1
20260509201503 22 92 0.0 0.0 0.00 0.00 0.00 62 1007.2
20260509200104 22 319 0.0 0.0 0.00 0.00 0.00 62 1007.3
20260509194558 22 106 0.0 0.0 0.00 0.00 0.00 62 1007.5
20260509193050 22 355 0.0 0.0 0.00 0.00 0.00 62 1007.9
20260509191546 22 103 0.0 0.0 0.00 0.00 0.00 61 1007.9
20260509190050 22 290 0.0 0.0 0.00 0.00 0.00 61 1007.9
20260509184536 22 334 0.0 0.0 0.00 0.00 0.00 60 1007.8
20260509183032 22 16 0.0 0.0 0.00 0.00 0.00 60 1008.1
20260509181528 22 111 0.0 0.0 0.00 0.00 0.00 61 1008.3
20260509180023 22 301 0.0 0.0 0.00 0.00 0.00 61 1008.7
20260509174519 21 321 0.0 0.0 0.00 0.00 0.00 62 1008.7
20260509173015 22 17 0.0 0.0 0.00 0.00 0.00 62 1008.9
20260509171522 22 289 0.0 0.0 0.00 0.00 0.00 62 1008.8
20260509170023 21 229 0.0 0.0 0.00 0.00 0.00 62 1009.3
20260509164503 22 150 0.0 0.0 0.00 0.00 0.00 61 1009.5
20260509163058 22 80 0.0 0.0 0.00 0.00 0.00 61 1009.6
20260509161559 21 84 0.0 0.0 0.00 0.00 0.00 59 1009.9
20260509160052 21 70 0.0 1.6 0.00 0.00 0.00 58 1010.0
20260509154546 21 104 0.0 0.0 0.00 0.00 0.00 55 1010.0
20260509153042 20 107 0.0 0.0 0.00 0.00 0.00 58 1009.8
20260509151538 20 317 0.0 0.0 0.00 0.00 0.00 57 1010.0
20260509150036 20 238 0.0 0.0 0.00 0.00 0.00 51 1010.2
20260509144532 19 113 0.0 0.0 0.00 0.00 0.00 51 1010.4
20260509143024 19 96 0.0 0.0 0.00 0.00 0.00 52 1010.3
20260509141522 18 92 0.0 0.0 0.00 0.00 0.00 47 1010.2
20260509140015 18 109 0.0 1.6 0.00 0.00 0.00 42 1010.5
20260509134512 17 65 0.0 0.0 0.00 0.00 0.00 22 1010.8
20260509133006 16 57 0.0 0.0 0.00 0.00 0.00 1 1011.2
20260509131502 15 132 0.0 0.0 0.00 0.00 0.00 1 1011.4
20260509130058 13 273 0.0 0.0 0.00 0.00 0.00 1 1011.8
20260509124554 12 277 0.0 0.0 0.00 0.00 0.00 1 1012.1
20260509123051 11 19 0.0 0.0 0.00 0.00 0.00 1 1011.8
20260509121549 10 5 0.0 0.0 0.00 0.00 0.00 1 1011.5
20260509120043 10 295 0.0 1.6 0.00 0.00 0.00 1 1011.3
20260509114543 9 313 0.0 0.0 0.00 0.00 0.00 1 1011.5
20260509113034 8 121 0.0 0.0 0.00 0.00 0.00 1 1011.4
20260509111529 8 173 0.0 0.0 0.00 0.00 0.00 1 1011.2
20260509110024 8 173 0.0 0.0 0.00 0.00 0.00 5 1011.3
20260509104520 8 179 0.0 0.0 0.00 0.00 0.00 12 1011.1
20260509103017 8 165 0.0 0.0 0.00 0.00 0.00 22 1010.8
20260509101526 8 165 0.0 0.0 0.00 0.00 0.00 23 1010.3
20260509100020 9 165 0.0 0.0 0.00 0.00 0.00 26 1010.3
20260509094515 9 165 0.0 0.0 0.00 0.00 0.00 31 1010.5
20260509093009 10 165 0.0 0.0 0.00 0.00 0.00 42 1010.3
20260509091503 10 165 0.0 0.0 0.00 0.00 0.00 44 1010.5
20260509084600 10 165 0.0 0.0 0.00 0.00 0.00 50 1010.8
20260509083055 11 165 0.0 0.0 0.00 0.00 0.00 50 1011.0
20260509081553 11 165 0.0 0.0 0.00 0.00 0.00 49 1011.2
20260509080051 11 165 0.0 0.0 0.00 0.00 0.00 54 1011.1
20260509074559 11 165 0.0 0.0 0.00 0.00 0.00 56 1010.9
20260509073048 11 165 0.0 0.0 0.00 0.00 0.00 57 1010.9
20260509071547 11 165 0.0 0.0 0.00 0.00 0.00 58 1011.1
20260509070045 12 165 0.0 0.0 0.00 0.00 0.00 58 1011.2
20260509064557 12 165 0.0 0.0 0.00 0.00 0.00 58 1011.4
20260509063045 12 165 0.0 0.0 0.00 0.00 0.00 60 1011.6
20260509061543 12 166 0.0 0.0 0.00 0.00 0.00 61 1011.9
20260509060037 12 168 0.0 0.0 0.00 0.00 0.00 55 1012.0
20260509054536 12 168 0.0 0.0 0.00 0.00 0.00 62 1012.2
20260509053032 11 168 0.0 0.0 0.00 0.00 0.00 59 1012.5
20260509051534 11 180 0.0 0.0 0.00 0.00 0.00 58 1012.6
20260509050028 11 182 0.0 0.0 0.00 0.00 0.00 55 1012.7
20260509044526 11 87 0.0 0.0 0.00 0.00 0.00 56 1012.8
20260509043024 11 87 0.0 0.0 0.00 0.00 0.00 57 1012.8
20260509041523 11 87 0.0 0.0 0.00 0.00 0.00 58 1012.8
20260509040021 11 87 0.0 0.0 0.00 0.00 0.00 60 1012.8
20260509034537 11 87 0.0 0.0 0.00 0.00 0.00 61 1012.8
20260509033020 11 87 0.0 0.0 0.00 0.00 0.00 60 1012.8
20260509031517 11 87 0.0 0.0 0.00 0.00 0.00 59 1012.8
20260509030017 11 87 0.0 0.0 0.00 0.00 0.00 61 1012.8
20260509024509 11 87 0.0 0.0 0.00 0.00 0.00 63 1013.0
20260509023006 11 87 0.0 0.0 0.00 0.00 0.00 64 1013.1
20260509021502 12 87 0.0 0.0 0.00 0.00 0.00 65 1013.1
20260509020056 12 87 0.0 0.0 0.00 0.00 0.00 65 1013.3
20260509014553 12 87 0.0 0.0 0.00 0.00 0.00 64 1013.2
20260509013054 13 87 0.0 0.0 0.00 0.00 0.00 64 1013.1
20260509011544 13 87 0.0 0.0 0.00 0.00 0.00 64 1012.9
20260509010042 13 87 0.0 0.0 0.00 0.00 0.00 62 1012.8
20260509004538 14 87 0.0 0.0 0.00 0.00 0.00 60 1012.7
20260509003034 15 87 0.0 0.0 0.00 0.00 0.00 56 1012.7
20260509001532 16 87 0.0 0.0 0.00 0.00 0.00 54 1012.6